Weather History for Santa Fe, NM

Change the Weather History Date:

Friday, December 7, 2012

  Actual Average Record
Temperature  
Mean Temperature 42 °F -  
Max Temperature 57 °F 54 °F 57 °F (2007)
Min Temperature 26 °F 19 °F 5 °F (2005)
Degree Days  
Heating Degree Days 24    
Moisture  
Dew Point 20 °F    
Average Humidity 46    
Maximum Humidity 66    
Minimum Humidity 27    
Precipitation  
Precipitation 0.00 in - - ()
Sea Level Pressure  
Sea Level Pressure 29.84 in    
Wind  
Wind Speed 5 mph (NW)    
Max Wind Speed 15 mph    
Max Gust Speed 21 mph    
Visibility 10 miles    
Events      
Averages and records for this station are not official NWS values.
T = Trace of Precipitation, MM = Missing Value Source: NWS Daily Summary

Daily Weather History Graph

Daily Weather History Graph

Search for Another Location

Airport:

Trip Planner

Search our weather history database for the weather conditions in past years. The results will help you decide how hot, cold, wet, or windy it might be!

Date:

Astronomy

Dec. 07, 2012 Rise Set
Actual Time 7:01 AM MST 4:51 PM MST
Civil Twilight 6:32 AM MST 5:19 PM MST
Nautical Twilight 6:01 AM MST 5:51 PM MST
Astronomical Twilight 5:30 AM MST 6:21 PM MST
Moon 12:34 AM MST (12/7) 12:39 PM MST (12/7)
Length of Visible Light 10h 46m
Length of Day
9h 49m
Last Quarter, 38% of the Moon is Illuminated
Dec 7
Last Quarter
Dec 13
New
Dec 19
First Quarter
Dec 28
Full
Jan 4
Last Quarter

Hourly Weather History & Observations

Time (MST) Temp. Windchill Dew Point Humidity Pressure Visibility Wind Dir Wind Speed Gust Speed Precip Events Conditions
12:53 AM 41.0 °F - 19.9 °F 43% 29.80 in 10.0 mi Calm Calm - N/A   Overcast
1:53 AM 36.0 °F 29.6 °F 19.9 °F 52% 29.81 in 10.0 mi North 8.1 mph - N/A   Mostly Cloudy
2:53 AM 36.0 °F 32.1 °F 19.9 °F 52% 29.80 in 10.0 mi North 4.6 mph - N/A   Mostly Cloudy
3:53 AM 34.0 °F 31.0 °F 19.0 °F 54% 29.81 in 10.0 mi North 3.5 mph - N/A   Clear
4:53 AM 30.0 °F - 18.0 °F 61% 29.84 in 10.0 mi Calm Calm - N/A   Clear
5:53 AM 26.1 °F - 16.0 °F 66% 29.88 in 10.0 mi Calm Calm - N/A   Clear
6:53 AM 28.9 °F - 18.0 °F 64% 29.91 in 10.0 mi Calm Calm - N/A   Clear
7:53 AM 28.0 °F - 17.1 °F 63% 29.94 in 10.0 mi Calm Calm - N/A   Clear
8:53 AM 39.9 °F - 21.0 °F 47% 29.90 in 10.0 mi Calm Calm - N/A   Clear
9:53 AM 45.0 °F 41.8 °F 23.0 °F 42% 29.88 in 10.0 mi SW 5.8 mph - N/A   Clear
10:53 AM 51.1 °F - 25.0 °F 36% 29.83 in 10.0 mi NW 4.6 mph - N/A   Clear
11:53 AM 51.1 °F - 26.1 °F 38% 29.81 in 10.0 mi WSW 12.7 mph - N/A   Clear
12:53 PM 55.0 °F - 25.0 °F 31% 29.77 in 10.0 mi West 9.2 mph - N/A   Clear
1:53 PM 57.0 °F - 24.1 °F 28% 29.74 in 10.0 mi NW 11.5 mph - N/A   Partly Cloudy
2:53 PM 57.0 °F - 23.0 °F 27% 29.74 in 10.0 mi West 13.8 mph 20.7 mph N/A   Clear
3:53 PM 55.0 °F - 21.0 °F 27% 29.77 in 10.0 mi West 12.7 mph - N/A   Clear
4:53 PM 50.0 °F - 21.9 °F 33% 29.83 in 10.0 mi West 15.0 mph - N/A   Clear
6:53 PM 44.1 °F 37.4 °F 18.0 °F 35% 29.89 in 10.0 mi NW 13.8 mph - N/A   Clear
7:53 PM 39.9 °F 36.7 °F 19.0 °F 43% 29.92 in 10.0 mi North 4.6 mph - N/A   Clear
8:53 PM 37.0 °F 33.3 °F 18.0 °F 46% 29.89 in 10.0 mi North 4.6 mph - N/A   Clear
9:53 PM 34.0 °F 28.8 °F 18.0 °F 52% 29.89 in 10.0 mi North 5.8 mph - N/A   Clear
10:53 PM 30.0 °F 23.2 °F 17.1 °F 59% 29.88 in 10.0 mi North 6.9 mph - N/A   Clear
11:53 PM 30.9 °F 23.5 °F 19.0 °F 61% 29.87 in 10.0 mi North 8.1 mph - N/A   Clear